timestamp,wind_dir_avg,wind_spd_avg,wind_spd_max_dir,wind_spd_gust,battery_voltage,lat,long
2022-10-02 00:04:00+00:00,257.0,7.41,257.0,10.1,12.57,47.59359,-54.27349
2022-10-02 00:14:01+00:00,256.0,5.19,259.0,6.66,12.57,47.59359,-54.27349
2022-10-02 00:24:01+00:00,245.0,6.22,253.0,9.65,12.57,47.59359,-54.27349
2022-10-02 00:34:01+00:00,246.0,5.48,252.0,7.39,12.57,47.59359,-54.27349
2022-10-02 00:44:01+00:00,260.0,3.97,258.0,4.71,12.57,47.59359,-54.27349
2022-10-02 00:54:01+00:00,252.0,3.93,250.0,4.37,12.57,47.59359,-54.27349
2022-10-02 01:04:01+00:00,254.0,4.33,256.0,4.84,12.57,47.59359,-54.27349
2022-10-02 01:14:00+00:00,268.0,4.21,261.0,4.88,12.49,47.59359,-54.27349
2022-10-02 01:24:00+00:00,293.0,4.92,290.0,5.52,12.49,47.59359,-54.27349
2022-10-02 01:34:00+00:00,292.0,4.68,295.0,5.18,12.49,47.59359,-54.27349
2022-10-02 01:44:00+00:00,305.0,4.88,305.0,5.28,12.49,47.59359,-54.27349
2022-10-02 01:54:00+00:00,305.0,5.14,303.0,5.65,12.49,47.59359,-54.27349
2022-10-02 02:04:00+00:00,309.0,5.51,298.0,7.33,12.49,47.59359,-54.27349
2022-10-02 02:14:01+00:00,309.0,5.16,310.0,5.73,12.49,47.59359,-54.27349
2022-10-02 02:24:01+00:00,308.0,5.11,308.0,5.58,12.49,47.59359,-54.27349
2022-10-02 02:34:01+00:00,313.0,5.35,310.0,6.1,12.49,47.59359,-54.27349
2022-10-02 02:44:01+00:00,312.0,5.15,314.0,5.66,12.49,47.59359,-54.27349
2022-10-02 02:54:01+00:00,316.0,5.88,317.0,6.75,12.49,47.59359,-54.27349
2022-10-02 03:04:01+00:00,313.0,5.02,308.0,5.72,12.49,47.59359,-54.27349
2022-10-02 03:14:00+00:00,317.0,4.7,316.0,5.28,12.49,47.59359,-54.27349
2022-10-02 03:24:00+00:00,317.0,4.33,320.0,5.33,12.49,47.59359,-54.27349
2022-10-02 03:34:00+00:00,341.0,5.3,342.0,6.26,12.49,47.59359,-54.27349
2022-10-02 03:44:00+00:00,340.0,5.79,349.0,6.39,12.49,47.59359,-54.27349
2022-10-02 03:54:00+00:00,0.0,6.91,2.0,7.44,12.49,47.59359,-54.27349
2022-10-02 04:04:00+00:00,344.0,6.29,338.0,6.99,12.49,47.59359,-54.27349
2022-10-02 04:14:00+00:00,347.0,7.51,342.0,8.46,12.49,47.59359,-54.27349
2022-10-02 04:24:00+00:00,357.0,6.45,1.0,7.32,12.49,47.59359,-54.27349
2022-10-02 04:34:00+00:00,349.0,4.53,351.0,5.19,12.49,47.59359,-54.27349
2022-10-02 04:44:00+00:00,337.0,5.34,338.0,5.83,12.49,47.59359,-54.27349
2022-10-02 04:54:00+00:00,331.0,5.22,334.0,5.72,12.49,47.59359,-54.27349
2022-10-02 05:04:00+00:00,336.0,6.12,339.0,6.55,12.49,47.59359,-54.27349
2022-10-02 05:14:00+00:00,342.0,6.24,339.0,7.13,12.41,47.59359,-54.27349
2022-10-02 05:24:00+00:00,343.0,6.73,348.0,7.47,12.41,47.59359,-54.27349
2022-10-02 05:34:00+00:00,1.0,6.59,7.0,7.16,12.41,47.59359,-54.27349
2022-10-02 05:44:00+00:00,352.0,5.7,354.0,6.24,12.41,47.59359,-54.27349
2022-10-02 05:54:00+00:00,354.0,6.77,357.0,7.73,12.41,47.59359,-54.27349
2022-10-02 06:04:00+00:00,357.0,6.99,0.0,7.93,12.41,47.59359,-54.27349
2022-10-02 06:14:00+00:00,345.0,6.07,347.0,6.73,12.41,47.59359,-54.27349
2022-10-02 06:24:00+00:00,353.0,5.83,351.0,6.46,12.41,47.59359,-54.27349
2022-10-02 06:34:00+00:00,14.0,5.9,17.0,6.96,12.41,47.59359,-54.27349
2022-10-02 06:44:00+00:00,14.0,7.53,13.0,8.57,12.41,47.59359,-54.27349
2022-10-02 06:54:00+00:00,15.0,7.47,13.0,8.74,12.41,47.59359,-54.27349
2022-10-02 07:04:00+00:00,12.0,7.31,16.0,8.33,12.41,47.59359,-54.27349
2022-10-02 07:14:00+00:00,359.0,7.57,3.0,9.1,12.41,47.59359,-54.27349
2022-10-02 07:24:00+00:00,0.0,7.79,359.0,8.55,12.41,47.59359,-54.27349
2022-10-02 07:34:00+00:00,2.0,6.03,7.0,6.95,12.41,47.59359,-54.27349
2022-10-02 07:44:00+00:00,6.0,6.52,8.0,7.61,12.41,47.59359,-54.27349
2022-10-02 07:54:00+00:00,13.0,5.6,13.0,7.14,12.41,47.59359,-54.27349
2022-10-02 08:04:00+00:00,14.0,5.82,6.0,6.36,12.41,47.59359,-54.27349
2022-10-02 08:14:00+00:00,14.0,5.93,15.0,6.4,12.41,47.59359,-54.27349
2022-10-02 08:24:00+00:00,13.0,5.3,14.0,6.47,12.41,47.59359,-54.27349
2022-10-02 08:34:00+00:00,7.0,5.66,15.0,6.55,12.41,47.59359,-54.27349
2022-10-02 08:44:00+00:00,10.0,5.3,11.0,6.02,12.41,47.59359,-54.27349
2022-10-02 08:54:00+00:00,5.0,6.33,5.0,7.59,12.41,47.59359,-54.27349
2022-10-02 09:04:00+00:00,1.0,6.18,3.0,6.9,12.41,47.59359,-54.27349
2022-10-02 09:14:00+00:00,12.0,6.75,13.0,7.71,12.33,47.59359,-54.27349
2022-10-02 09:24:00+00:00,353.0,6.32,352.0,7.2,12.33,47.59359,-54.27349
2022-10-02 09:34:00+00:00,358.0,7.45,1.0,8.25,12.33,47.59359,-54.27349
2022-10-02 09:44:00+00:00,0.0,9.05,0.0,10.34,12.33,47.59359,-54.27349
2022-10-02 09:54:00+00:00,2.0,8.79,2.0,9.87,12.33,47.59359,-54.27349
2022-10-02 10:04:00+00:00,358.0,7.69,357.0,8.86,12.33,47.59359,-54.27349
2022-10-02 10:14:01+00:00,359.0,7.54,1.0,8.83,12.33,47.59359,-54.27349
2022-10-02 10:24:01+00:00,358.0,7.69,0.0,8.85,12.33,47.59359,-54.27349
2022-10-02 10:34:01+00:00,358.0,7.23,3.0,8.44,12.33,47.59359,-54.27349
2022-10-02 10:44:01+00:00,353.0,7.45,352.0,8.61,12.33,47.59359,-54.27349
2022-10-02 10:54:01+00:00,356.0,7.9,0.0,8.47,12.33,47.59359,-54.27349
2022-10-02 11:04:01+00:00,352.0,4.96,354.0,5.66,12.33,47.59359,-54.27349
2022-10-02 11:14:01+00:00,1.0,6.18,359.0,6.88,14.08,47.59359,-54.27349
2022-10-02 11:24:01+00:00,357.0,7.32,356.0,8.65,14.08,47.59359,-54.27349
2022-10-02 11:34:01+00:00,1.0,7.32,359.0,7.91,14.08,47.59359,-54.27349
2022-10-02 11:44:01+00:00,2.0,7.57,8.0,8.42,14.08,47.59359,-54.27349
2022-10-02 11:54:01+00:00,359.0,7.04,357.0,7.98,14.08,47.59359,-54.27349
2022-10-02 12:04:01+00:00,353.0,5.36,351.0,6.88,14.08,47.59359,-54.27349
2022-10-02 12:14:00+00:00,352.0,4.95,354.0,5.43,14.32,47.59359,-54.27349
2022-10-02 12:24:00+00:00,2.0,4.52,1.0,5.58,14.32,47.59359,-54.27349
2022-10-02 12:34:00+00:00,0.0,3.47,349.0,4.4,14.32,47.59359,-54.27349
2022-10-02 12:44:00+00:00,0.0,3.54,10.0,4.03,14.32,47.59359,-54.27349
2022-10-02 12:54:00+00:00,5.0,4.94,6.0,5.65,14.32,47.59359,-54.27349
2022-10-02 13:04:00+00:00,358.0,5.35,357.0,6.26,14.32,47.59359,-54.27349
2022-10-02 13:14:00+00:00,2.0,6.55,2.0,7.37,14.4,47.59359,-54.27349
2022-10-02 13:24:00+00:00,357.0,5.42,358.0,6.37,14.4,47.59359,-54.27349
2022-10-02 13:34:00+00:00,351.0,7.23,1.0,8.39,14.4,47.59359,-54.27349
2022-10-02 13:44:00+00:00,335.0,5.89,335.0,6.72,14.4,47.59359,-54.27349
2022-10-02 13:54:00+00:00,358.0,6.49,5.0,8.0,14.4,47.59359,-54.27349
2022-10-02 14:04:00+00:00,334.0,5.57,335.0,6.28,14.4,47.59359,-54.27349
2022-10-02 14:14:01+00:00,19.0,6.91,15.0,8.62,13.92,47.59359,-54.27349
2022-10-02 14:24:01+00:00,345.0,9.01,346.0,9.84,13.92,47.59359,-54.27349
2022-10-02 14:34:01+00:00,348.0,8.82,351.0,10.17,13.92,47.59359,-54.27349
2022-10-02 14:44:01+00:00,349.0,9.34,352.0,10.31,13.92,47.59359,-54.27349
2022-10-02 14:54:01+00:00,354.0,7.93,356.0,9.11,13.92,47.59359,-54.27349
2022-10-02 15:04:01+00:00,359.0,7.1,357.0,8.71,13.92,47.59359,-54.27349
2022-10-02 15:14:00+00:00,341.0,6.16,332.0,7.55,13.76,47.59359,-54.27349
2022-10-02 15:24:00+00:00,349.0,6.6,348.0,7.39,13.76,47.59359,-54.27349
2022-10-02 15:34:00+00:00,355.0,8.38,1.0,9.7,13.76,47.59359,-54.27349
2022-10-02 15:44:00+00:00,338.0,7.75,341.0,9.24,13.76,47.59359,-54.27349
2022-10-02 15:54:00+00:00,344.0,6.86,341.0,8.34,13.76,47.59359,-54.27349
2022-10-02 16:04:00+00:00,359.0,5.53,1.0,6.81,13.76,47.59359,-54.27349
2022-10-02 16:14:00+00:00,345.0,8.07,347.0,10.12,14.16,47.59359,-54.27349
2022-10-02 16:24:00+00:00,359.0,8.65,357.0,9.82,14.16,47.59359,-54.27349
2022-10-02 16:34:00+00:00,336.0,8.03,343.0,9.49,14.16,47.59359,-54.27349
2022-10-02 16:44:00+00:00,337.0,8.39,340.0,10.19,14.16,47.59359,-54.27349
2022-10-02 16:54:00+00:00,322.0,8.19,323.0,9.26,14.16,47.59359,-54.27349
2022-10-02 17:04:00+00:00,341.0,8.75,339.0,9.68,14.16,47.59359,-54.27349
2022-10-02 17:14:00+00:00,350.0,10.33,350.0,12.27,13.76,47.59359,-54.27349
2022-10-02 17:24:00+00:00,337.0,7.18,344.0,10.59,13.76,47.59359,-54.27349
2022-10-02 17:34:00+00:00,354.0,7.17,357.0,8.77,13.76,47.59359,-54.27349
2022-10-02 17:44:00+00:00,352.0,7.53,355.0,9.23,13.76,47.59359,-54.27349
2022-10-02 17:54:00+00:00,345.0,8.69,347.0,11.75,13.76,47.59359,-54.27349
2022-10-02 18:04:00+00:00,352.0,8.26,356.0,9.9,13.76,47.59359,-54.27349
2022-10-02 18:14:00+00:00,336.0,7.13,338.0,8.28,13.84,47.59359,-54.27349
2022-10-02 18:24:00+00:00,350.0,9.4,356.0,10.23,13.84,47.59359,-54.27349
2022-10-02 18:34:00+00:00,347.0,7.01,345.0,9.35,13.84,47.59359,-54.27349
2022-10-02 18:44:00+00:00,350.0,6.41,348.0,7.28,13.84,47.59359,-54.27349
2022-10-02 18:54:00+00:00,0.0,9.06,354.0,11.12,13.84,47.59359,-54.27349
2022-10-02 19:04:00+00:00,348.0,8.87,347.0,10.35,13.84,47.59359,-54.27349
2022-10-02 19:14:01+00:00,336.0,8.03,339.0,8.99,13.84,47.59359,-54.27349
2022-10-02 19:24:01+00:00,2.0,9.09,0.0,10.4,13.84,47.59359,-54.27349
2022-10-02 19:34:01+00:00,358.0,10.26,354.0,11.71,13.84,47.59359,-54.27349
2022-10-02 19:44:01+00:00,5.0,8.69,5.0,9.78,13.84,47.59359,-54.27349
2022-10-02 19:54:01+00:00,345.0,6.78,347.0,8.08,13.84,47.59359,-54.27349
2022-10-02 20:04:01+00:00,353.0,6.32,352.0,7.51,13.84,47.59359,-54.27349
2022-10-02 20:14:00+00:00,4.0,7.37,348.0,9.37,13.6,47.59359,-54.27349
2022-10-02 20:24:00+00:00,2.0,6.49,3.0,7.87,13.6,47.59359,-54.27349
2022-10-02 20:34:00+00:00,6.0,6.43,3.0,8.03,13.6,47.59359,-54.27349
2022-10-02 20:44:00+00:00,5.0,6.4,8.0,7.09,13.6,47.59359,-54.27349
2022-10-02 20:54:00+00:00,7.0,7.02,3.0,8.16,13.6,47.59359,-54.27349
2022-10-02 21:04:00+00:00,357.0,6.11,354.0,7.73,13.6,47.59359,-54.27349
2022-10-02 21:14:00+00:00,5.0,6.0,6.0,6.69,13.13,47.59359,-54.27349
2022-10-02 21:24:00+00:00,10.0,6.46,8.0,8.03,13.13,47.59359,-54.27349
2022-10-02 21:34:00+00:00,15.0,6.19,21.0,7.12,13.13,47.59359,-54.27349
2022-10-02 21:44:00+00:00,23.0,5.47,18.0,6.13,13.13,47.59359,-54.27349
2022-10-02 21:54:00+00:00,16.0,5.28,15.0,6.78,13.13,47.59359,-54.27349
2022-10-02 22:04:00+00:00,0.0,6.57,4.0,7.98,13.13,47.59359,-54.27349
2022-10-02 22:14:00+00:00,357.0,4.95,358.0,6.98,12.65,47.59359,-54.27349
2022-10-02 22:24:00+00:00,17.0,4.51,21.0,5.22,12.65,47.59359,-54.27349
2022-10-02 22:34:00+00:00,12.0,6.11,8.0,7.84,12.65,47.59359,-54.27349
2022-10-02 22:44:00+00:00,27.0,7.25,27.0,8.2,12.65,47.59359,-54.27349
2022-10-02 22:54:00+00:00,13.0,6.96,13.0,8.06,12.65,47.59359,-54.27349
2022-10-02 23:04:00+00:00,14.0,6.93,11.0,7.82,12.65,47.59359,-54.27349
2022-10-02 23:14:00+00:00,5.0,6.03,358.0,7.26,12.57,47.59359,-54.27349
2022-10-02 23:24:00+00:00,350.0,5.62,345.0,6.16,12.57,47.59359,-54.27349
2022-10-02 23:34:00+00:00,354.0,5.14,348.0,5.92,12.57,47.59359,-54.27349
2022-10-02 23:44:00+00:00,357.0,5.2,359.0,6.01,12.57,47.59359,-54.27349
2022-10-02 23:54:00+00:00,327.0,4.48,324.0,5.09,12.57,47.59359,-54.27349
